User: anonymous   Login
Location: Unspecified
(0.0000°N, 0.0000°E)
Time: 09:15:27
(UTC+00:00)
Language:

Resurs 1-4 - Orbit

View from above orbital plane
View from above orbital plane
View from above satellite
View from above satellite

Ground track
Ground track

The orbit data is extracted from the following two-line orbital elements,

1 25394U 98043A   17086.86563300 -.00000065 +00000-0 -97207-5 0  9993
2 25394 098.5521 032.6427 0001650 136.7590 223.3719 14.24462691972769
Epoch (UTC): 27 March 2017 20:46:30
Eccentricity: 0.0001650
inclination: 98.5521°
perigee height: 809 km
apogee height: 811 km
right ascension of ascending node: 32.6427°
argument of perigee: 136.7590°
revolutions per day: 14.24462691
mean anomaly at epoch: 223.3719°
orbit number at epoch: 97276

The dashed part of the orbit path shows where the satellite is in the earth's shadow,  

DLR